"Pseudo-MPEC" for A11huvA

Created 2025 Jan 23 0:31:03 UT using Find_Orb

Click here for an explanation of pseudo-MPECs

 
 Astrometry: 
     A11huvA* C2025 01 08.27123410 14 43.428+12 08 56.51   ~18Al 16.74oVNEOCPW68
     A11huvA  C2025 01 08.27304410 14 48.581+12 12 05.80   ~18Al 16.86oVNEOCPW68
     A11huvA  C2025 01 08.27622210 14 57.610+12 17 38.80   ~18Al 16.78oVNEOCPW68
     A11huvA  C2025 01 08.28210510 15 14.136+12 27 54.25   ~18Al 16.94oVNEOCPW68
     A11huvA KB2025 01 08.58577810 31 42.107+21 19 16.88   ~18El 19.3 GXNEOCPQ06
     A11huvA KB2025 01 08.58887010 31 52.465+21 24 53.12   ~18El 20.0 GXNEOCPQ06
     A11huvA KB2025 01 08.59196110 32 02.859+21 30 27.03   ~18El 19.0 GXNEOCPQ06

Station data:
(Q06) Tarui Observatory, Tarui  (N35.394791 E136.495470)  Japan.
(W68) ATLAS Chile, Rio Hurtado  (S30.471010 W70.764980)  Chile.  Observers L.
   Denneau, R. Siverd, J. Tonry, H. Weiland. Measurers L. Denneau, N.
   Erasmus, A. Fitzsimmons, A. Lawrence, J. Robinson, R. Siverd, J. Tonry, H.
   Weiland. 0.5-m reflector + CCD.

Orbital elements:  A11huvA
   Perihelion 2025 Jan 29.73731 +/- 1.66 TT = 17:41:43 (JD 2460705.23731)
Epoch 2025 Jan  8.0 TT = JDT 2460683.5   Earth MOID: 0.0140      AutoNEOCP
M 346.34829309 +/- 1.4              (J2000 ecliptic)
n   0.62803114 +/- 0.0219           Peri.   24.40460 +/- 1.8
a   1.35046062 +/- 0.0314           Node   108.61860 +/- 0.017
e   0.2755434 +/- 0.0158            Incl.   33.28266 +/- 0.6
P   1.569/573.209d         H 25.18  G  0.15   U 10.2
q 0.97835005 +/- 0.00238    Q 1.72257119 +/- 0.0614
From 7 observations 2025 Jan. 8 (7.7 hr); mean residual 0".49
Residuals in arcseconds: 
250108 W68  .44-  .13-    250108 W68  .75-  .15-    250108 Q06  .45+  .76-    
250108 W68  .21+  .12-    250108 Q06  .29-  .03+    
250108 W68  .97+  .40+    250108 Q06  .16-  .74+    

Ephemerides (geocentric):
Date (UTC) HH   RA             Dec           delta  r     elong  mag " sig PA
---- --------  ------------   ------------  ------ ------ -----  --- --------
2025 01 23 01  18 37 25.906   +61 52 51.41  .15559 .98019  84.0 24.1  150 146
2025 01 23 02  18 37 34.183   +61 52 07.44  .15602 .98016  83.9 24.2  150 146
2025 01 23 03  18 37 42.409   +61 51 23.68  .15646 .98014  83.9 24.2  150 146
2025 01 23 04  18 37 50.584   +61 50 40.13  .15689 .98012  83.9 24.2  150 146
2025 01 23 05  18 37 58.708   +61 49 56.78  .15732 .98009  83.9 24.2  150 146
2025 01 23 06  18 38 06.782   +61 49 13.63  .15776 .98007  83.9 24.2  150 146
2025 01 23 07  18 38 14.806   +61 48 30.68  .15819 .98005  83.8 24.2  150 146
2025 01 23 08  18 38 22.781   +61 47 47.94  .15862 .98002  83.8 24.2  150 146
2025 01 23 09  18 38 30.708   +61 47 05.39  .15905 .98000  83.8 24.2  150 146
2025 01 23 10  18 38 38.586   +61 46 23.03  .15949 .97998  83.8 24.2  150 146
2025 01 23 11  18 38 46.417   +61 45 40.88  .15992 .97996  83.8 24.2  150 146
2025 01 23 12  18 38 54.200   +61 44 58.92  .16035 .97993  83.8 24.2  150 146
2025 01 23 13  18 39 01.937   +61 44 17.15  .16079 .97991  83.7 24.2  150 146
2025 01 23 14  18 39 09.627   +61 43 35.57  .16122 .97989  83.7 24.2  150 146
2025 01 23 15  18 39 17.271   +61 42 54.18  .16165 .97987  83.7 24.2  150 146
2025 01 23 16  18 39 24.869   +61 42 12.98  .16208 .97985  83.7 24.2  150 146
2025 01 23 17  18 39 32.422   +61 41 31.96  .16252 .97982  83.7 24.2  150 146
2025 01 23 18  18 39 39.931   +61 40 51.14  .16295 .97980  83.6 24.2  150 146
2025 01 23 19  18 39 47.395   +61 40 10.50  .16338 .97978  83.6 24.2  150 146
2025 01 23 20  18 39 54.815   +61 39 30.04  .16381 .97976  83.6 24.3  150 146
2025 01 23 21  18 40 02.192   +61 38 49.76  .16425 .97974  83.6 24.3  149 146
2025 01 23 22  18 40 09.525   +61 38 09.66  .16468 .97972  83.6 24.3  149 146
2025 01 23 23  18 40 16.816   +61 37 29.75  .16511 .97970  83.6 24.3  149 146
2025 01 24 00  18 40 24.064   +61 36 50.01  .16554 .97968  83.5 24.3  149 146
2025 01 24 01  18 40 31.271   +61 36 10.45  .16597 .97966  83.5 24.3  149 146
2025 01 24 02  18 40 38.435   +61 35 31.06  .16641 .97964  83.5 24.3  149 146
2025 01 24 03  18 40 45.559   +61 34 51.85  .16684 .97962  83.5 24.3  149 146
2025 01 24 04  18 40 52.641   +61 34 12.81  .16727 .97960  83.5 24.3  149 146
2025 01 24 05  18 40 59.683   +61 33 33.95  .16770 .97958  83.5 24.3  149 146
2025 01 24 06  18 41 06.685   +61 32 55.25  .16813 .97956  83.4 24.3  149 146
2025 01 24 07  18 41 13.647   +61 32 16.73  .16856 .97954  83.4 24.3  149 147
2025 01 24 08  18 41 20.570   +61 31 38.37  .16900 .97952  83.4 24.3  149 147
2025 01 24 09  18 41 27.453   +61 31 00.18  .16943 .97950  83.4 24.3  149 147
2025 01 24 10  18 41 34.298   +61 30 22.16  .16986 .97948  83.4 24.3  149 147
2025 01 24 11  18 41 41.104   +61 29 44.30  .17029 .97946  83.4 24.3  149 147
2025 01 24 12  18 41 47.872   +61 29 06.61  .17072 .97944  83.3 24.3  149 147
2025 01 24 13  18 41 54.602   +61 28 29.08  .17115 .97942  83.3 24.3  149 147
2025 01 24 14  18 42 01.295   +61 27 51.71  .17158 .97940  83.3 24.3  149 147
2025 01 24 15  18 42 07.951   +61 27 14.50  .17201 .97938  83.3 24.4  149 147
2025 01 24 16  18 42 14.570   +61 26 37.45  .17244 .97937  83.3 24.4  149 147
2025 01 24 17  18 42 21.152   +61 26 00.56  .17288 .97935  83.3 24.4  149 147
2025 01 24 18  18 42 27.698   +61 25 23.83  .17331 .97933  83.2 24.4  149 147
2025 01 24 19  18 42 34.209   +61 24 47.26  .17374 .97931  83.2 24.4  149 147
2025 01 24 20  18 42 40.683   +61 24 10.84  .17417 .97929  83.2 24.4  149 147
2025 01 24 21  18 42 47.123   +61 23 34.57  .17460 .97928  83.2 24.4  149 147
2025 01 24 22  18 42 53.527   +61 22 58.46  .17503 .97926  83.2 24.4  149 147
2025 01 24 23  18 42 59.897   +61 22 22.50  .17546 .97924  83.2 24.4  149 147
2025 01 25 00  18 43 06.233   +61 21 46.69  .17589 .97923  83.2 24.4  149 147